Grosse Ile, MI

9:11 PM EDT on May 27, 2017 (GMT -0400)
Grosse Ile Municipal

Weather History for KONZ - February, 2013

Change the Weather History Date:

Saturday, February 9, 2013

  Actual Average (KDTW) Record (KDTW)
Temperature  
Mean Temperature 21 °F -  
Max Temperature 28 °F 31 °F 56 °F (2001)
Min Temperature 14 °F 14 °F -20 °F (1875)
Degree Days  
Heating Degree Days 44    
Moisture  
Dew Point 17 °F    
Average Humidity 78    
Maximum Humidity 86    
Minimum Humidity 59    
Precipitation  
Precipitation 0.00 in - - ()
Sea Level Pressure  
Sea Level Pressure 30.36 in    
Wind  
Wind Speed 6 mph (SE)    
Max Wind Speed 10 mph    
Max Gust Speed -    
Visibility 10 miles    
Events      
Averages and records for this station are not official NWS values.
T = Trace of Precipitation, MM = Missing Value Source: NWS Daily Summary

Daily Weather History Graph

Daily Weather History Graph

Search for Another Location

Airport or City:

Trip Planner

Search our weather history database for the weather conditions in past years. The results will help you decide how hot, cold, wet, or windy it might be!

Date:

Astronomy

Feb. 09, 2013 Rise Set
Actual Time 7:36 AM EST 5:58 PM EST
Civil Twilight 7:07 AM EST 6:27 PM EST
Nautical Twilight 6:34 AM EST 7:00 PM EST
Astronomical Twilight 6:01 AM EST 7:32 PM EST
Moon 6:47 AM EST (2/9) 5:40 PM EST (2/9)
Length of Visible Light 11h 19m
Length of Day
10h 21m
Waning Crescent, 0% of the Moon is Illuminated
Feb 9
Waning Crescent
Feb 10
New
Feb 17
First Quarter
Feb 25
Full
Mar 4
Last Quarter

Hourly Weather History & Observations

Time (EST) Temp. Windchill Dew Point Humidity Pressure Visibility Wind Dir Wind Speed Gust Speed Precip Events Conditions
12:14 AM 24.8 °F 14.6 °F 17.6 °F 74% 30.32 in 10.0 mi NNW 10.4 mph - N/A   Overcast
12:34 AM 24.8 °F 15.3 °F 17.6 °F 74% 30.33 in 10.0 mi NNW 9.2 mph - N/A   Overcast
12:54 AM 24.8 °F 16.9 °F 17.6 °F 74% 30.33 in 10.0 mi NNW 6.9 mph - N/A   Overcast
1:14 AM 24.8 °F 16.9 °F 17.6 °F 74% 30.33 in 10.0 mi North 6.9 mph - N/A   Overcast
1:34 AM 24.8 °F 17.9 °F 17.6 °F 74% 30.33 in 10.0 mi NNW 5.8 mph - N/A   Overcast
1:54 AM 24.8 °F 15.3 °F 17.6 °F 74% 30.33 in 10.0 mi NW 9.2 mph - N/A   Overcast
2:14 AM 24.8 °F 19.1 °F 17.6 °F 74% 30.34 in 10.0 mi NW 4.6 mph - N/A   Overcast
2:34 AM 24.8 °F 16.1 °F 17.6 °F 74% 30.34 in 10.0 mi NW 8.1 mph - N/A   Overcast
2:54 AM 21.2 °F 12.6 °F 15.8 °F 80% 30.34 in 10.0 mi WNW 6.9 mph - N/A   Scattered Clouds
3:14 AM 21.2 °F 12.6 °F 15.8 °F 80% 30.35 in 10.0 mi WNW 6.9 mph - N/A   Clear
3:35 AM 19.4 °F 9.5 °F 15.8 °F 86% 30.35 in 10.0 mi NW 8.1 mph - N/A   Clear
3:54 AM 19.4 °F 9.5 °F 14.0 °F 80% 30.36 in 10.0 mi NW 8.1 mph - N/A   Clear
4:14 AM 17.6 °F 8.2 °F 12.2 °F 79% 30.36 in 10.0 mi NNW 6.9 mph - N/A   Clear
4:35 AM 17.6 °F 9.3 °F 12.2 °F 79% 30.36 in 10.0 mi NNW 5.8 mph - N/A   Clear
4:54 AM 15.8 °F 6.1 °F 12.2 °F 86% 30.37 in 10.0 mi NW 6.9 mph - N/A   Clear
5:14 AM 17.6 °F 7.3 °F 12.2 °F 79% 30.38 in 10.0 mi WNW 8.1 mph - N/A   Clear
5:34 AM 15.8 °F 5.1 °F 12.2 °F 86% 30.39 in 10.0 mi NW 8.1 mph - N/A   Clear
5:54 AM 15.8 °F 6.1 °F 12.2 °F 86% 30.38 in 10.0 mi NNW 6.9 mph - N/A   Clear
6:15 AM 15.8 °F 7.2 °F 10.4 °F 79% 30.38 in 10.0 mi NNW 5.8 mph - N/A   Clear
6:34 AM 15.8 °F 10.2 °F 10.4 °F 79% 30.38 in 10.0 mi North 3.5 mph - N/A   Clear
6:54 AM 14.0 °F - 10.4 °F 86% 30.39 in 10.0 mi Calm Calm - N/A   Clear
7:14 AM 14.0 °F 6.5 °F 10.4 °F 86% 30.40 in 10.0 mi NNW 4.6 mph - N/A   Clear
7:34 AM 14.0 °F 3.9 °F 10.4 °F 86% 30.40 in 10.0 mi NNW 6.9 mph - N/A   Clear
7:54 AM 14.0 °F 6.5 °F 10.4 °F 86% 30.41 in 10.0 mi NW 4.6 mph - N/A   Clear
8:14 AM 15.8 °F 6.1 °F 12.2 °F 86% 30.41 in 10.0 mi NNW 6.9 mph - N/A   Clear
8:34 AM 15.8 °F - 12.2 °F 86% 30.42 in 10.0 mi Calm Calm - N/A   Clear
8:54 AM 17.6 °F - 12.2 °F 79% 30.43 in 10.0 mi Calm Calm - N/A   Clear
9:14 AM 19.4 °F - 14.0 °F 80% 30.43 in 10.0 mi Calm Calm - N/A   Clear
9:34 AM 19.4 °F - 15.8 °F 86% 30.43 in 10.0 mi Calm Calm - N/A   Clear
9:54 AM 21.2 °F - 15.8 °F 80% 30.42 in 10.0 mi Calm Calm - N/A   Clear
10:14 AM 23.0 °F - 17.6 °F 80% 30.42 in 10.0 mi Calm Calm - N/A   Clear
10:34 AM 23.0 °F - 17.6 °F 80% 30.42 in 10.0 mi Calm Calm - N/A   Clear
10:54 AM 24.8 °F - 17.6 °F 74% 30.43 in 10.0 mi Calm Calm - N/A   Clear
11:14 AM 26.6 °F - 17.6 °F 69% 30.42 in 10.0 mi Calm Calm - N/A   Clear
11:34 AM 26.6 °F - 17.6 °F 69% 30.43 in 10.0 mi Calm Calm - N/A   Clear
11:54 AM 26.6 °F - 17.6 °F 69% 30.42 in 10.0 mi Calm Calm - N/A   Clear
12:14 PM 26.6 °F - 15.8 °F 64% 30.41 in 10.0 mi Calm Calm - N/A   Clear
12:35 PM 28.4 °F - 15.8 °F 59% 30.41 in 10.0 mi Calm Calm - N/A   Clear
12:54 PM 28.4 °F 24.6 °F 17.6 °F 64% 30.40 in 10.0 mi South 3.5 mph - N/A   Clear
1:14 PM 28.4 °F 21.2 °F 19.4 °F 69% 30.40 in 10.0 mi South 6.9 mph - N/A   Clear
1:34 PM 28.4 °F 21.2 °F 19.4 °F 69% 30.39 in 10.0 mi South 6.9 mph - N/A   Clear
1:54 PM 28.4 °F 21.2 °F 19.4 °F 69% 30.39 in 10.0 mi South 6.9 mph - N/A   Clear
2:14 PM 28.4 °F 21.2 °F 19.4 °F 69% 30.38 in 10.0 mi South 6.9 mph - N/A   Clear
2:34 PM 28.4 °F 21.2 °F 21.2 °F 74% 30.38 in 10.0 mi South 6.9 mph - N/A   Clear
2:54 PM 28.4 °F 20.4 °F 19.4 °F 69% 30.37 in 10.0 mi South 8.1 mph - N/A   Clear
3:14 PM 28.4 °F 21.2 °F 21.2 °F 74% 30.36 in 10.0 mi South 6.9 mph - N/A   Clear
3:54 PM 28.4 °F 19.7 °F 21.2 °F 74% 30.36 in 10.0 mi South 9.2 mph - N/A   Clear
4:15 PM 26.6 °F 18.2 °F 19.4 °F 74% 30.35 in 10.0 mi SSE 8.1 mph - N/A   Clear
4:34 PM 26.6 °F 19.1 °F 19.4 °F 74% 30.35 in 10.0 mi SSE 6.9 mph - N/A   Clear
4:54 PM 26.6 °F 19.1 °F 19.4 °F 74% 30.34 in 10.0 mi SSE 6.9 mph - N/A   Clear
5:15 PM 26.6 °F 19.1 °F 21.2 °F 80% 30.33 in 10.0 mi SE 6.9 mph - N/A   Clear
5:34 PM 26.6 °F 20.0 °F 21.2 °F 80% 30.33 in 10.0 mi SE 5.8 mph - N/A   Clear
5:54 PM 26.6 °F 22.6 °F 19.4 °F 74% 30.34 in 10.0 mi SE 3.5 mph - N/A   Clear
6:14 PM 24.8 °F 20.5 °F 19.4 °F 80% 30.34 in 10.0 mi SE 3.5 mph - N/A   Clear
6:34 PM 24.8 °F 20.5 °F 19.4 °F 80% 30.34 in 10.0 mi ESE 3.5 mph - N/A   Clear
6:54 PM 24.8 °F 19.1 °F 19.4 °F 80% 30.34 in 10.0 mi ESE 4.6 mph - N/A   Clear
7:14 PM 24.8 °F - 19.4 °F 80% 30.34 in 10.0 mi Calm Calm - N/A   Clear
7:34 PM 24.8 °F 17.9 °F 19.4 °F 80% 30.33 in 10.0 mi ESE 5.8 mph - N/A   Clear
7:54 PM 24.8 °F 20.5 °F 19.4 °F 80% 30.33 in 10.0 mi SE 3.5 mph - N/A   Clear
8:34 PM 24.8 °F 19.1 °F 19.4 °F 80% 30.32 in 10.0 mi SE 4.6 mph - N/A   Clear
8:55 PM 24.8 °F 16.9 °F 19.4 °F 80% 30.32 in 10.0 mi SE 6.9 mph - N/A   Clear
9:14 PM 24.8 °F 16.9 °F 19.4 °F 80% 30.31 in 10.0 mi SE 6.9 mph - N/A   Clear
9:34 PM 24.8 °F 17.9 °F 19.4 °F 80% 30.31 in 10.0 mi SE 5.8 mph - N/A   Clear
9:54 PM 24.8 °F 16.9 °F 19.4 °F 80% 30.31 in 10.0 mi ESE 6.9 mph - N/A   Clear
10:14 PM 24.8 °F 17.9 °F 19.4 °F 80% 30.31 in 10.0 mi SE 5.8 mph - N/A   Clear
10:35 PM 24.8 °F 17.9 °F 21.2 °F 86% 30.30 in 10.0 mi SE 5.8 mph - N/A   Clear
10:54 PM 24.8 °F 16.1 °F 19.4 °F 80% 30.29 in 10.0 mi SE 8.1 mph - N/A   Clear
11:14 PM 24.8 °F 17.9 °F 19.4 °F 80% 30.29 in 10.0 mi SE 5.8 mph - N/A   Clear
11:34 PM 24.8 °F 17.9 °F 21.2 °F 86% 30.28 in 10.0 mi SE 5.8 mph - N/A   Clear
11:54 PM 24.8 °F 17.9 °F 19.4 °F 80% 30.28 in 10.0 mi SE 5.8 mph - N/A   Clear